Preview of NWS' New Version of Forecast
This preview is not operational and should not be used for support decisions.

Regional Weather Roundup (RWR)

Issued by Gray - Portland, ME (GYX)

                            
000
ASUS41 KGYX 210410
RWRGYX
WEATHER ROUNDUP FOR MAINE AND NEW HAMPSHIRE
NATIONAL WEATHER SERVICE GRAY ME
1200 AM EDT SAT SEP 21 2019

MEZ002-005-006-010-012-015-018-020-021-024-026-027-029-210500-
MAINE
  
CITY           SKY/WX    TMP DP  RH WIND       PRES   REMARKS
PORTLAND       FAIR      60  53  77 W6        30.09S                  
SANFORD        FAIR      53  52  96 CALM      30.11R                  
BAR HARBOR     CLOUDY    68  55  63 NW7       30.04S                  
WISCASSET      FAIR      69  48  47 VRB3      30.09R                  
ROCKLAND       FAIR      60  54  80 W7        30.06R                  
FRYEBURG       FAIR      52  50  93 W3        30.12R                  
LEWISTONAUBURN FAIR      63  53  70 SW3       30.10S                  
AUGUSTA        FAIR      65  48  54 W5        30.09S                  
WATERVILLE     FAIR      64  51  62 NW3       30.06S                  
BANGOR         MOCLDY    65  55  70 W6        30.06R                  
GREENVILLE       N/A     61  53  75 N8        30.07F                  
MILLINOCKET    FAIR      66  57  72 W5        30.05F                  
HOULTON        FAIR      62  57  83 CALM      30.00S                  
PRESQUE ISLE   FAIR      63  57  81 W6        30.03R                  
FRENCHVILLE    FAIR      59  55  87 NW10      30.03R                  
CARIBOU        FAIR      62  55  77 W5        30.01S                  
$$

NHZ002-005-008-009-011-012-014-210500-
NEW HAMPSHIRE
  
CITY           SKY/WX    TMP DP  RH WIND       PRES   REMARKS
PORTSMOUTH     PTCLDY    60  52  73 CALM      30.09R                  
ROCHESTER      FAIR      60  50  69 CALM      30.10R                  
NASHUA         FAIR      57  55  93 CALM      30.12S                  
MANCHESTER     FAIR      62  51  67 CALM      30.11R                  
CONCORD        FAIR      53  51  93 CALM      30.13R                  
LACONIA        FAIR      57  53  86 SW5       30.14S                  
PLYMOUTH       FAIR      56  50  79 W6        30.14S                  
BERLIN         MOCLDY    51  49  92 CALM      30.16S                  
WHITEFIELD     FAIR      50  47  89 CALM      30.17F                  
JAFFREY        FAIR      53  49  86 CALM      30.16F                  
KEENE          FAIR      52  52 100 CALM      30.16F FOG              
LEBANON        FAIR      51  47  86 CALM      30.17R                  
MT WASHINGTON  FOG       46  46 100 N45G58      N/A  VSB 0            
$$

VTZ005-007-008-210500-
VERMONT
  
CITY           SKY/WX    TMP DP  RH WIND       PRES   REMARKS
ST JOHNSBURY     N/A     52  51  97 MISG      30.16S                  
MONTPELIER     FAIR      51  50  96 S3        30.22S                  
BURLINGTON     FAIR      58  53  84 CALM      30.16F                  
$$

MAZ007-012-024-CTZ003-RIZ002-NYZ038-NYZ072-210500-
SOUTHERN NEW ENGLAND AND NY
  
CITY           SKY/WX    TMP DP  RH WIND       PRES   REMARKS
BOSTON         FAIR      71  51  49 W9        30.10F                  
NANTUCKET      FAIR      64  60  87 W12       30.12F                  
PROVIDENCE     FAIR      63  53  70 W6        30.14S                  
HARTFORD       FAIR      55  50  83 N3        30.16S                  
ALBANY         FAIR      57  51  80 S5        30.18S                  
NEW YORK CITY  PTCLDY    70  54  56 W9        30.17S                  
$$

ANZ081-ANZ082-ANZ150-NHZ014-MEZ023>029-210500-
COASTAL MARINE OBSERVATIONS
  
STATION/POSITION TIME  TEMP    WIND        PRES    WAVE
                       AIR SEA DIR/SP/G            HT/PER
                 (UTC) (F)     (DEG/KT/KT) (MB)    (FT/S)
MOUNT DESERT ROC 0400          290/ 13/ 14 1016.9R
MATINICUS ROCK   0350   61                 1017.0R
ISLE OF SHOALS   0300   67     260/ 10/ 11 1018.2F
JEFFREYS LEDGE   0338      62                N/A     7/12
CASHES LEDGE BUO 0350   63 60  270/ 10/ 16 1018.3F   7/13
GEORGES BANK BUO 0350   60 59              1019.6F   7/12
$$

.............KEY..............
   WCI - WIND CHILL
   TC  - TEMPERATURE IN CELSIUS
   VSB - VISIBILITY IN MILES
   HX  - HEAT INDEX
   FAIR- INDICATES FEW OR NO CLOUDS BELOW 12,000 FT, WITH NO 
         SIGNIFICANT WEATHER AND/OR OBSTRUCTIONS TO VISIBILITY.